Location: Bonny Doon Airfield
(37.0704°N, 122.1252°W)
Time: 22:15:17
(UTC-08:00)

Envisat - Pass Details

Date: 13 October 2017
Orbit: 764 x 766 km, 98.2° (Epoch: 14 December)

Event Time Altitude Azimuth Distance (km) Brightness Sun altitude
Exits shadow 19:37:18 13° 56° (NE) 2,072 4.8 -13.4°
Drops below altitude 10° 19:39:10 10° 34° (NE) 2,308 5.2 -13.8°
Sets 19:42:37 0° 9° (N) 3,240 6.2 -14.5°
